Blackwell, OK

8:12 PM CDT on May 20, 2018 (GMT -0500)
Blackwell

Weather History for KBKN - October, 2011

Change the Weather History Date:

Thursday, October 6, 2011

  Actual Average (KPNC) Record (KPNC)
Temperature  
Mean Temperature 75 °F -  
Max Temperature 86 °F 80 °F 94 °F (1963)
Min Temperature 64 °F 54 °F 36 °F (2001)
Cooling Degree Days 10    
Growing Degree Days 25 (Base 50)    
Moisture  
Dew Point 44 °F    
Average Humidity 36    
Maximum Humidity 49    
Minimum Humidity 20    
Precipitation  
Precipitation 0.00 in - - ()
Sea Level Pressure  
Sea Level Pressure 29.94 in    
Wind  
Wind Speed 16 mph (SSE)    
Max Wind Speed 29 mph    
Max Gust Speed 41 mph    
Visibility 10 miles    
Events Rain    
Averages and records for this station are not official NWS values.
T = Trace of Precipitation, MM = Missing Value Source: NWS Daily Summary

Daily Weather History Graph

Daily Weather History Graph

Search for Another Location

Airport or City:

Astronomy

Oct. 06, 2011 Rise Set
Actual Time 7:28 AM CDT 7:05 PM CDT
Civil Twilight 7:02 AM CDT 7:31 PM CDT
Nautical Twilight 6:32 AM CDT 8:01 PM CDT
Astronomical Twilight 6:02 AM CDT 8:31 PM CDT
Moon 4:13 PM CDT (10/6) 2:26 AM CDT (10/6)
Length of Visible Light 12h 28m
Length of Day
11h 37m
Waxing Gibbous, 75% of the Moon is Illuminated
Oct 6
Waxing Gibbous
Oct 11
Full
Oct 19
Last Quarter
Oct 26
New
Nov 2
First Quarter

Hourly Weather History & Observations

Time (CDT) Temp. Dew Point Humidity Pressure Visibility Wind Dir Wind Speed Gust Speed Precip Events Conditions
12:15 AM 68.0 °F 44.6 °F 43% 29.99 in 10.0 mi SSE 10.4 mph - N/A   Partly Cloudy
12:35 AM 66.2 °F 44.6 °F 46% 29.97 in 10.0 mi SE 11.5 mph - N/A   Partly Cloudy
12:55 AM 66.2 °F 44.6 °F 46% 29.97 in 10.0 mi SE 13.8 mph - N/A   Clear
1:15 AM 66.2 °F 44.6 °F 46% 29.97 in 10.0 mi SSE 15.0 mph 19.6 mph N/A   Clear
1:35 AM 66.2 °F 42.8 °F 43% 29.97 in 10.0 mi SSE 12.7 mph - N/A   Clear
1:55 AM 66.2 °F 42.8 °F 43% 29.98 in 10.0 mi SSE 13.8 mph - N/A   Clear
2:15 AM 66.2 °F 41.0 °F 40% 29.98 in 10.0 mi SE 11.5 mph - N/A   Clear
2:35 AM 66.2 °F 41.0 °F 40% 29.98 in 10.0 mi SE 10.4 mph - N/A   Clear
2:55 AM 66.2 °F 41.0 °F 40% 29.97 in 10.0 mi SE 12.7 mph - N/A   Scattered Clouds
3:15 AM 66.2 °F 41.0 °F 40% 29.97 in 10.0 mi SE 10.4 mph - N/A   Mostly Cloudy
3:35 AM 66.2 °F 41.0 °F 40% 29.97 in 10.0 mi SE 10.4 mph 17.3 mph N/A   Overcast
3:55 AM 66.2 °F 41.0 °F 40% 29.96 in 10.0 mi SE 11.5 mph - N/A   Overcast
4:15 AM 66.2 °F 41.0 °F 40% 29.96 in 10.0 mi SE 11.5 mph 17.3 mph N/A   Overcast
4:35 AM 66.2 °F 41.0 °F 40% 29.97 in 10.0 mi SE 11.5 mph - N/A   Mostly Cloudy
4:55 AM 66.2 °F 41.0 °F 40% 29.97 in 10.0 mi SE 11.5 mph - N/A   Partly Cloudy
5:15 AM 66.2 °F 41.0 °F 40% 29.97 in 10.0 mi SE 12.7 mph - N/A   Mostly Cloudy
5:35 AM 66.2 °F 41.0 °F 40% 29.97 in 10.0 mi SSE 11.5 mph 16.1 mph N/A   Mostly Cloudy
6:15 AM 64.4 °F 42.8 °F 45% 29.97 in 10.0 mi SE 8.1 mph - N/A   Overcast
6:35 AM 64.4 °F 44.6 °F 49% 29.97 in 10.0 mi SE 9.2 mph - N/A   Overcast
6:55 AM 64.4 °F 44.6 °F 49% 29.97 in 10.0 mi ESE 9.2 mph - N/A   Overcast
7:15 AM 64.4 °F 44.6 °F 49% 29.97 in 10.0 mi SE 8.1 mph - N/A   Mostly Cloudy
7:35 AM 64.4 °F 42.8 °F 45% 29.97 in 10.0 mi SE 13.8 mph 18.4 mph N/A   Partly Cloudy
7:55 AM 64.4 °F 44.6 °F 49% 29.97 in 10.0 mi SSE 11.5 mph 18.4 mph N/A   Partly Cloudy
8:15 AM 66.2 °F 44.6 °F 46% 29.96 in 10.0 mi SE 15.0 mph - N/A   Clear
8:35 AM 66.2 °F 44.6 °F 46% 29.97 in 10.0 mi SE 12.7 mph 19.6 mph N/A   Mostly Cloudy
8:55 AM 66.2 °F 46.4 °F 49% 29.97 in 10.0 mi SE 12.7 mph 17.3 mph N/A   Mostly Cloudy
9:15 AM 66.2 °F 46.4 °F 49% 29.97 in 10.0 mi SE 13.8 mph 19.6 mph N/A   Mostly Cloudy
9:35 AM 68.0 °F 48.2 °F 49% 29.97 in 10.0 mi SE 16.1 mph 23.0 mph N/A   Scattered Clouds
9:55 AM 69.8 °F 48.2 °F 46% 29.97 in 10.0 mi SSE 20.7 mph 28.8 mph N/A   Clear
10:15 AM 73.4 °F 50.0 °F 44% 29.98 in 10.0 mi SSE 20.7 mph 29.9 mph N/A   Partly Cloudy
10:35 AM 73.4 °F 50.0 °F 44% 29.98 in 10.0 mi SSE 18.4 mph 26.5 mph N/A   Partly Cloudy
10:55 AM 75.2 °F 48.2 °F 38% 29.97 in 10.0 mi SSE 27.6 mph 38.0 mph N/A   Clear
11:15 AM 77.0 °F 48.2 °F 36% 29.96 in 10.0 mi SSE 26.5 mph 35.7 mph N/A   Scattered Clouds
11:35 AM 78.8 °F 46.4 °F 32% 29.96 in 10.0 mi South 26.5 mph 38.0 mph N/A   Mostly Cloudy
11:55 AM 77.0 °F 44.6 °F 32% 29.96 in 10.0 mi South 27.6 mph 39.1 mph N/A Rain Light Rain
12:15 PM 80.6 °F 44.6 °F 28% 29.95 in 10.0 mi SSE 26.5 mph 36.8 mph N/A   Partly Cloudy
12:35 PM 80.6 °F 44.6 °F 28% 29.94 in 10.0 mi SSE 21.9 mph 34.5 mph N/A   Clear
12:55 PM 82.4 °F 44.6 °F 26% 29.94 in 10.0 mi SSE 26.5 mph 35.7 mph N/A   Clear
1:15 PM 82.4 °F 44.6 °F 26% 29.93 in 10.0 mi South 23.0 mph 35.7 mph N/A   Clear
1:35 PM 82.4 °F 44.6 °F 26% 29.92 in 10.0 mi SSE 23.0 mph 32.2 mph N/A   Partly Cloudy
1:55 PM 84.2 °F 44.6 °F 25% 29.91 in 10.0 mi SSE 25.3 mph 33.4 mph N/A   Partly Cloudy
2:15 PM 84.2 °F 44.6 °F 25% 29.90 in 9.0 mi SSE 25.3 mph 38.0 mph N/A   Clear
2:35 PM 84.2 °F 44.6 °F 25% 29.89 in 8.0 mi SSE 23.0 mph 40.3 mph N/A   Clear
2:55 PM 84.2 °F 44.6 °F 25% 29.89 in 9.0 mi SSE 25.3 mph 34.5 mph N/A   Clear
3:15 PM 84.2 °F 42.8 °F 23% 29.88 in 10.0 mi SSE 28.8 mph 36.8 mph N/A   Clear
3:35 PM 86.0 °F 42.8 °F 22% 29.87 in 6.0 mi SSE 24.2 mph 33.4 mph N/A   Haze
3:55 PM 86.0 °F 41.0 °F 20% 29.86 in 7.0 mi SE 25.3 mph 35.7 mph N/A   Clear
4:15 PM 84.2 °F 42.8 °F 23% 29.86 in 7.0 mi SSE 23.0 mph 38.0 mph N/A   Clear
4:35 PM 84.2 °F 42.8 °F 23% 29.85 in 10.0 mi SSE 25.3 mph 36.8 mph N/A   Clear
4:55 PM 84.2 °F 42.8 °F 23% 29.85 in 10.0 mi SSE 23.0 mph 36.8 mph N/A   Clear
5:15 PM 84.2 °F 42.8 °F 23% 29.85 in 10.0 mi SE 27.6 mph 36.8 mph N/A   Clear
5:35 PM 82.4 °F 44.6 °F 26% 29.84 in 10.0 mi SSE 27.6 mph 38.0 mph N/A   Clear
5:55 PM 82.4 °F 44.6 °F 26% 29.84 in 10.0 mi SSE 26.5 mph 41.4 mph N/A   Clear
6:15 PM 82.4 °F 46.4 °F 28% 29.84 in 10.0 mi SSE 23.0 mph 35.7 mph N/A   Clear
6:35 PM 80.6 °F 46.4 °F 30% 29.85 in 10.0 mi SSE 19.6 mph 28.8 mph N/A   Clear
6:55 PM 80.6 °F 48.2 °F 32% 29.85 in 10.0 mi SSE 18.4 mph 28.8 mph N/A   Clear
7:15 PM 77.0 °F 48.2 °F 36% 29.86 in 10.0 mi SSE 19.6 mph 24.2 mph N/A   Clear
7:35 PM 77.0 °F 50.0 °F 39% 29.87 in 10.0 mi SE 18.4 mph 24.2 mph N/A   Clear
7:55 PM 77.0 °F 48.2 °F 36% 29.88 in 10.0 mi SE 17.3 mph 23.0 mph N/A   Clear
8:35 PM 75.2 °F 46.4 °F 36% 29.88 in 10.0 mi SE 17.3 mph 24.2 mph N/A   Clear
8:55 PM 75.2 °F 46.4 °F 36% 29.88 in 10.0 mi SE 17.3 mph 23.0 mph N/A   Clear
9:15 PM 73.4 °F 46.4 °F 38% 29.88 in 10.0 mi SE 13.8 mph - N/A   Clear
9:35 PM 73.4 °F 44.6 °F 36% 29.89 in 10.0 mi SE 13.8 mph 21.9 mph N/A   Clear
9:55 PM 73.4 °F 44.6 °F 36% 29.89 in 10.0 mi SE 15.0 mph 20.7 mph N/A   Clear
10:15 PM 73.4 °F 46.4 °F 38% 29.89 in 10.0 mi SE 16.1 mph 23.0 mph N/A   Clear
10:35 PM 73.4 °F 44.6 °F 36% 29.89 in 10.0 mi SE 17.3 mph 25.3 mph N/A   Partly Cloudy
10:55 PM 73.4 °F 44.6 °F 36% 29.90 in 10.0 mi SE 18.4 mph 27.6 mph N/A   Scattered Clouds
11:15 PM 73.4 °F 44.6 °F 36% 29.90 in 10.0 mi SSE 21.9 mph 31.1 mph N/A   Scattered Clouds
11:35 PM 73.4 °F 44.6 °F 36% 29.90 in 10.0 mi SE 19.6 mph 25.3 mph N/A   Mostly Cloudy
11:55 PM 71.6 °F 44.6 °F 38% 29.90 in 10.0 mi SE 18.4 mph - N/A   Overcast